Skip Page Navigation
NASA JPL Caltech
NASA Logo - Jet Propulsion Laboratory + View the NASA Portal
+ Center for Near-Earth Object Studies
JPL Home Earth Solar System Stars & Galaxies Technology
JPL Solar System Dynamics
BODIES ORBITS EPHEMERIDES TOOLS PHYSICAL DATA DISCOVERY FAQ SITE MAP
JPL Small-Body Database Browser
Search: [ help ]  
46003 (2001 CF3)
Classification: Main-belt Asteroid          SPK-ID: 2046003
Ephemeris | Orbit Diagram | Orbital Elements | Mission Design | Physical Parameters | Discovery Circumstances ]

[ show orbit diagram ]
Orbital Elements at Epoch 2459396.5 (2021-Jul-01.0) TDB
Reference: JPL 19 (heliocentric ecliptic J2000)
 Element Value Uncertainty (1-sigma)   Units 
e .1345259689403044 3.081e-08  
a 2.331992994788312 7.7334e-09 au
q 2.018279377602413 6.9076e-08 au
i 5.965779506462588 3.8576e-06 deg
node 124.545140370097 4.4676e-05 deg
peri 156.3997219139287 4.918e-05 deg
M 139.834376718189 2.2247e-05 deg
tp 2458891.256494972097
(2020-Feb-11.75649497)
7.9662e-05 TDB
period 1300.736385993316
3.56
6.4703e-06
1.771e-08
d
yr
n .2767663024395858 1.3767e-09 deg/d
Q 2.645706611974212 8.7738e-09 au
  Orbit Determination Parameters
   # obs. used (total)      1052  
   data-arc span      10313 days (28.24 yr)  
   first obs. used      1992-11-17  
   last obs. used      2021-02-11  
   planetary ephem.      DE441  
   SB-pert. ephem.      SB441-N16  
   condition code      0  
   norm. resid. RMS      .52566  
   source      ORB  
   producer      Otto Matic  
   solution date      2021-Jul-08 21:21:38  

Additional Information
 Earth MOID = 1.00319 au 
 Jupiter MOID = 2.48231 au 
 T_jup = 3.551 
[ show covariance matrix ]

Ephemeris | Orbit Diagram | Orbital Elements | Mission Design | Physical Parameters | Discovery Circumstances ]

Physical Parameter Table
Parameter Symbol Value Units Sigma Reference Notes
absolute magnitude H 15.83   n/a E2021B10  

46003 (2001 CF3)          Discovered 2001-Feb-01 by LINEAR at Socorro
Reference: 20020822/Numbers.arcLast Updated: 2004-04-19

Alternate Designations
 2001 CF3 = 1998 KB67 
Ephemeris | Orbit Diagram | Orbital Elements | Mission Design | Physical Parameters | Discovery Circumstances ]
ABOUT SSD CREDITS/AWARDS PRIVACY/COPYRIGHT GLOSSARY LINKS
FirstGov 2021-Jul-25 17:29 UT
(server date/time)  
NASA Home Page
Site Manager:   Ryan S. Park
Webmaster  Alan B. Chamberlin